Погода в Журавлево

Россия / Санкт-Петербург и Ленинградская область     59°21′01″N   34°43′24″E
темп.,
°C
ветер,
м/с
пор.,
м/с
влажн.,
%
обл.,
%
осадки,
мм/ч
давл.,
гПа
погр.,
м
5 августа, чт
чт500:00+13з1168100 0.0 101611
03:00+13з1170100 0.0 101722
06:00+13юз0071100 0.0 101718
09:00+16юв0158100 0.0 1017297
12:00+21в123487 0.0 10172401
15:00+20юв3240100 0.0 10161781
18:00+17сз2253100 0.0 101640
21:00+15св2756100 0.0 1015226
6 августа, пт
пт600:00+11ссв2498100 4.2 1016119
03:00+12св3998100 8.3 1015482
06:00+11св41196100 1.3 1015602
09:00+11св41096100 1.9 1015670
12:00+12св4795100 0.1 1015904
15:00+12св4891100 0.2 1015745
18:00+12св3893100 0.1 1014620
21:00+12всв3996100 0.1 1014474
7 августа, сб
сб700:00+12всв41097100 0.1 1014440
03:00+13всв41197100 0.1 1013526
06:00+13всв41196100 0.1 1013518
09:00+13в51299100 4.8 1012550
12:00+14в51398100 1.2 1012661
15:00+15в51298100 2.3 1011753
18:00+15в41299100 7.8 1011661
21:00+15в41099100 8.7 1010589
8 августа, вс
вс800:00+15всв3899100 0.5 1010444
03:00+15св2599100 0.6 1009227
06:00+15ссв12100100 0.5 1009130
09:00+16зюз1399100 0.9 1009235
12:00+16зюз279857 0.5 1010402
15:00+19зсз238099 1.7 1010393
18:00+16з279499 1.3 1011242
21:00+14зюз24975 1.3 101288
9 августа, пн
пн900:00+13зюз269814 0.0 1013137
03:00+12зюз259930 0.0 1014132
06:00+14зюз2599100 0.0 1014212
09:00+15з2597100 0.0 1015389
12:00+17зсз2288100 0.1 1015597
15:00+20ссв117280 0.1 1015715
18:00+21всв226950 0.0 1015688
21:00+15в3894100 0.0 1014208